K5IUC Weather Reports


Display with metric or nautical units.
time (UTC)temp
F
wind
direction
speed
MPH
gust
MPH
rain 1hr
in
rain 24hr
in
rain mn
in
humidity
%
barometer
mb
20260506154616 53 23 6.0 11.0 0.06 0.06 0.06 95 1012.1
20260506153635 53 45 8.0 13.0 0.06 0.06 0.06 95 1011.2
20260506152638 52 45 5.0 8.0 0.06 0.06 0.06 94 1010.9
20260506151618 52 23 7.0 8.0 0.06 0.06 0.06 94 1011.8
20260506150616 52 315 4.0 6.0 0.06 0.06 0.06 93 1013.5
20260506145638 53 45 8.0 12.0 0.02 0.02 0.02 90 1012.5
20260506144615 54 315 1.0 3.0 0.00 0.00 0.00 84 1013.2
20260506143617 55 45 4.0 7.0 0.00 0.00 0.00 81 1012.9
20260506142617 55 315 6.0 8.0 0.00 0.00 0.00 80 1011.7
20260506141617 55 23 6.0 9.0 0.00 0.00 0.00 80 1011.3
20260506140616 55 23 8.0 13.0 0.00 0.00 0.00 80 1011.7
20260506135637 54 0 5.0 7.0 0.00 0.00 0.00 81 1011.3
20260506134617 55 23 8.0 12.0 0.00 0.00 0.00 80 1011.5
20260506133638 55 23 9.0 11.0 0.00 0.00 0.00 79 1011.0
20260506132618 55 23 6.0 9.0 0.00 0.00 0.00 79 1010.9
20260506131617 55 0 7.0 13.0 0.00 0.00 0.00 78 1010.8
20260506130637 56 0 6.0 10.0 0.00 0.00 0.00 77 1010.5
20260506125617 56 45 5.0 8.0 0.00 0.00 0.00 77 1010.2
20260506124637 56 45 6.0 9.0 0.00 0.00 0.00 76 1010.2
20260506123617 56 338 7.0 11.0 0.00 0.00 0.00 75 1010.2
20260506122617 56 45 5.0 8.0 0.00 0.00 0.00 75 1010.2
20260506121617 57 45 6.0 8.0 0.00 0.00 0.00 75 1009.6
20260506120617 57 45 8.0 12.0 0.00 0.00 0.00 75 1009.7
20260506115617 57 23 7.0 11.0 0.00 0.00 0.00 74 1009.6
20260506114617 57 0 7.0 11.0 0.00 0.00 0.00 74 1009.7
20260506113617 58 45 4.0 7.0 0.00 0.00 0.00 75 1009.5
20260506112617 58 45 7.0 9.0 0.00 0.00 0.00 74 1009.3
20260506111619 58 315 6.0 10.0 0.00 0.00 0.00 74 1009.3
20260506110617 58 0 6.0 9.0 0.00 0.00 0.00 74 1009.0
20260506105617 58 23 7.0 12.0 0.00 0.00 0.00 74 1009.1
20260506104617 59 0 6.0 9.0 0.00 0.00 0.00 74 1008.7
20260506103617 59 338 4.0 6.0 0.00 0.00 0.00 74 1008.8
20260506102617 59 23 5.0 8.0 0.00 0.00 0.00 74 1008.5
20260506101617 60 23 5.0 8.0 0.00 0.00 0.00 74 1008.3
20260506100637 60 23 7.0 8.0 0.00 0.00 0.00 75 1008.1
20260506095617 60 23 4.0 6.0 0.00 0.00 0.00 75 1008.1
20260506094657 60 23 5.0 7.0 0.00 0.00 0.00 74 1008.0
20260506093617 60 45 7.0 10.0 0.00 0.00 0.00 75 1008.1
20260506092616 61 45 7.0 9.0 0.00 0.00 0.00 74 1008.0
20260506091617 61 0 5.0 9.0 0.00 0.00 0.00 75 1007.8
20260506090617 61 45 3.0 5.0 0.00 0.00 0.00 75 1007.8
20260506085637 61 338 4.0 8.0 0.00 0.00 0.00 75 1007.8
20260506084637 61 0 4.0 7.0 0.00 0.00 0.00 76 1007.7
20260506083616 62 0 2.0 4.0 0.00 0.00 0.00 76 1007.5
20260506082617 62 0 3.0 4.0 0.00 0.00 0.00 76 1007.5
20260506081617 62 0 4.0 9.0 0.00 0.00 0.00 76 1007.4
20260506080617 62 338 5.0 6.0 0.00 0.00 0.00 77 1007.2
20260506072617 62 45 5.0 7.0 0.00 0.00 0.00 77 1007.2
20260506071616 63 23 3.0 6.0 0.00 0.00 0.00 77 1007.0
20260506070617 62 45 5.0 8.0 0.00 0.00 0.00 77 1007.1
20260506061637 63 338 5.0 8.0 0.00 0.00 0.00 76 1007.0
20260506060617 63 45 6.0 9.0 0.00 0.00 0.00 77 1006.8
20260506050616 66 338 6.0 9.0 0.00 0.00 0.00 75 1007.3
20260506044617 66 23 7.0 10.0 0.00 0.00 0.00 74 1006.8
20260506043617 67 23 7.0 10.0 0.00 0.00 0.00 74 1006.9
20260506042617 68 0 8.0 13.0 0.00 0.00 0.00 73 1007.3
20260506041617 68 0 7.0 10.0 0.00 0.00 0.00 73 1007.2
20260506040617 69 0 5.0 6.0 0.00 0.00 0.00 73 1006.8
20260506035637 69 23 8.0 15.0 0.00 0.00 0.00 72 1006.5
20260506034617 69 23 5.0 8.0 0.00 0.00 0.00 72 1006.0
20260506033617 70 23 6.0 9.0 0.00 0.00 0.00 71 1006.1
20260506032617 70 23 7.0 10.0 0.00 0.00 0.00 70 1005.8
20260506031617 70 338 6.0 9.0 0.00 0.00 0.00 69 1005.6
20260506030617 71 338 4.0 8.0 0.00 0.00 0.00 69 1005.6
20260506025617 71 45 8.0 12.0 0.00 0.00 0.00 69 1005.4
20260506024617 72 45 7.0 10.0 0.00 0.00 0.00 70 1005.6
20260506023617 72 45 10.0 13.0 0.00 0.00 0.00 69 1005.2
20260506022617 73 0 7.0 11.0 0.00 0.00 0.00 68 1005.1
20260506021617 73 45 5.0 9.0 0.00 0.00 0.00 68 1004.8
20260506020617 74 338 6.0 9.0 0.00 0.00 0.00 67 1004.7
20260506015617 74 45 7.0 10.0 0.00 0.00 0.00 67 1004.2
20260506014617 75 23 5.0 8.0 0.00 0.00 0.00 67 1003.8
20260506013617 76 23 9.0 13.0 0.00 0.00 0.00 67 1003.7
20260506012617 77 45 6.0 9.0 0.00 0.00 0.00 66 1003.7
20260506011617 77 0 5.0 8.0 0.00 0.00 0.00 65 1003.6
20260506010617 78 45 9.0 13.0 0.00 0.00 0.00 63 1003.3
20260506005617 79 45 6.0 8.0 0.00 0.00 0.00 63 1003.3
20260506004617 79 45 7.0 11.0 0.00 0.00 0.00 62 1003.1
20260506003619 80 23 6.0 9.0 0.00 0.00 0.00 61 1003.1
20260506002617 81 0 3.0 5.0 0.00 0.00 0.00 60 1003.1
20260506001617 81 23 2.0 4.0 0.00 0.00 0.00 59 1003.0
20260506000616 82 0 6.0 14.0 0.00 0.00 0.00 58 1003.1
20260505235617 83 338 7.0 10.0 0.00 0.00 0.00 57 1002.9
20260505234617 83 0 4.0 7.0 0.00 0.00 0.00 57 1002.7
20260505233617 84 338 5.0 8.0 0.00 0.00 0.00 57 1002.9
20260505232617 87 0 6.0 10.0 0.00 0.00 0.00 54 1002.7
20260505231616 88 338 5.0 7.0 0.00 0.00 0.00 49 1002.8
20260505230637 88 315 5.0 7.0 0.00 0.00 0.00 48 1002.5
20260505225617 89 338 5.0 9.0 0.00 0.00 0.00 48 1002.6
20260505224616 91 315 8.0 12.0 0.00 0.00 0.00 46 1002.6
20260505223616 93 315 4.0 5.0 0.00 0.00 0.00 46 1002.6
20260505222616 93 248 1.0 2.0 0.00 0.00 0.00 44 1002.6
20260505221616 93 270 4.0 5.0 0.00 0.00 0.00 45 1002.6
20260505220656 93 315 2.0 4.0 0.00 0.00 0.00 46 1002.5
20260505215616 93 293 5.0 8.0 0.00 0.00 0.00 45 1002.6
20260505214616 93 248 6.0 9.0 0.00 0.00 0.00 45 1002.3
20260505213616 93 225 4.0 7.0 0.00 0.00 0.00 44 1002.5
20260505212636 92 248 1.0 2.0 0.00 0.00 0.00 48 1002.4
20260505211617 92 225 4.0 6.0 0.00 0.00 0.00 47 1002.8
20260505210616 92 293 5.0 7.0 0.00 0.00 0.00 48 1002.8
20260505205616 91 225 3.0 6.0 0.00 0.00 0.00 50 1003.0
20260505204616 91 270 6.0 8.0 0.00 0.00 0.00 49 1003.1
20260505203616 91 293 3.0 6.0 0.00 0.00 0.00 52 1003.0
20260505202616 90 248 5.0 7.0 0.00 0.00 0.00 54 1003.2
20260505201616 90 248 6.0 12.0 0.00 0.00 0.00 55 1003.5
20260505200616 89 225 5.0 8.0 0.00 0.00 0.00 56 1003.4
20260505195616 89 225 9.0 16.0 0.00 0.00 0.00 56 1003.6
20260505194616 89 225 8.0 13.0 0.00 0.00 0.00 57 1003.6
20260505193617 89 248 9.0 13.0 0.00 0.00 0.00 57 1003.6
20260505192616 88 248 6.0 9.0 0.00 0.00 0.00 58 1003.6
20260505191616 88 225 11.0 15.0 0.00 0.00 0.00 58 1003.7
20260505190616 88 225 9.0 12.0 0.00 0.00 0.00 60 1003.6
20260505185616 87 225 7.0 10.0 0.00 0.00 0.00 60 1003.5
20260505184616 87 270 8.0 12.0 0.00 0.00 0.00 62 1003.7
20260505183616 86 225 8.0 12.0 0.00 0.00 0.00 62 1003.8
20260505182615 86 203 7.0 9.0 0.00 0.00 0.00 64 1003.8
20260505181636 86 225 9.0 12.0 0.00 0.00 0.00 65 1003.8
20260505180616 85 225 8.0 12.0 0.00 0.00 0.00 65 1003.7
20260505175616 85 225 9.0 11.0 0.00 0.00 0.00 65 1003.8
20260505174616 84 225 8.0 15.0 0.00 0.00 0.00 67 1003.6
20260505173616 84 203 9.0 12.0 0.00 0.00 0.00 66 1003.8
20260505172636 83 225 6.0 11.0 0.00 0.00 0.00 68 1003.8
20260505171636 82 225 6.0 12.0 0.00 0.00 0.00 68 1003.7
20260505170616 83 248 7.0 11.0 0.00 0.00 0.00 68 1003.8
20260505165616 83 225 8.0 13.0 0.00 0.00 0.00 68 1004.1
20260505164616 83 248 4.0 8.0 0.00 0.00 0.00 69 1004.0
20260505163616 82 203 7.0 11.0 0.00 0.00 0.00 70 1003.7
20260505162615 82 203 9.0 14.0 0.00 0.00 0.00 70 1003.5
20260505161617 81 225 5.0 8.0 0.00 0.00 0.00 71 1003.5
20260505160658 80 225 8.0 14.0 0.00 0.00 0.00 72 1003.5